Regional Weather Roundup
Issued by NWS Upton, NY

Current Version | Previous Version | Text Only | Print | Product List | Glossary On
Versions: 1 2 3 4 5 6 7 8 9 10 11 12 13 14 15 16 17 18 19 20 21 22 23 24 25 26 27 28 29 30 31 32 33 34 35 36 37 38 39 40 41 42 43 44 45 46 47 48 49 50
000
ASUS41 KOKX 201308
RWROKX

REGIONAL WEATHER ROUNDUP
NATIONAL WEATHER SERVICE NEW YORK NY
900 AM EDT SUN AUG 20 2017

NOTE: "FAIR" INDICATES FEW OR NO CLOUDS BELOW 12,000 FEET WITH NO
SIGNIFICANT WEATHER AND/OR OBSTRUCTIONS TO VISIBILITY.

NYZ071-072-176-178-NJZ106-104-201400-
NEW YORK CITY METRO AREA

CITY           SKY/WX    TMP DP  RH WIND       PRES   REMARKS
Central Park   SUNNY     71  60  68 W8        30.06S
Bronx Bot Gard   N/A     72  59  64 E2        30.04S
LaGuardia APRT MOSUNNY   73  62  68 NW15      30.02R
Kennedy INTL   MOSUNNY   75  62  64 NW13      30.03R
Breezy Point     N/A     72 N/A N/A NW12G20     N/A
Newark/Liberty MOSUNNY   73  61  65 NW13      30.04R
Teterboro      SUNNY     73  61  65 NW12      30.02S
$$

NYZ177-179-078>081-201400-
LONG ISLAND NEW YORK

CITY           SKY/WX    TMP DP  RH WIND       PRES   REMARKS
Jones Beach      N/A     72 N/A N/A NW15        N/A
Matinecock PT    N/A     72 N/A N/A W14         N/A
Farmingdale    SUNNY     73  61  65 NW8       30.02R
MacArthur/ISP  MOSUNNY   75  63  66 NW13      30.01R
Shirley        SUNNY     76  65  68 NW10      30.01R
Mt Sinai Harb    N/A    N/A N/A N/A W6G13       N/A
Westhampton    SUNNY     75  62  64 NW14      30.01S
East Hampton   FAIR      73  62  67 NW12      29.99R
Montauk          N/A     73  64  73 W6        30.00R
$$

NYZ052-065-067-201400-
HUDSON VALLEY

CITY           SKY/WX    TMP DP  RH WIND       PRES   REMARKS
White Plains   MOSUNNY   71  61  70 NW13      30.02S
Larchmont Harb   N/A     70 N/A N/A W12         N/A
Croton On Huds   N/A     73 N/A N/A NW8         N/A
Newburgh       SUNNY     70  63  78 NW12      30.05R
Montgomery     SUNNY     71  60  68 NW8       30.04S
Poughkeepsie   SUNNY     72  60  66 W6        30.02R
Albany         MOSUNNY   71  60  68 NW12      30.02R
$$

NJZ001-105-106-008-010-013-015-019>022-104-201400-
NEW JERSEY

CITY           SKY/WX    TMP DP  RH WIND       PRES   REMARKS
Newark/Liberty MOSUNNY   73  61  65 NW13      30.04R
Teterboro      SUNNY     73  61  65 NW12      30.02S
Caldwell       SUNNY     71  61  70 NW10      30.05S
Somerville     SUNNY     71  63  75 NW7       30.04S
Linden         NOT AVBL
Perth Amboy      N/A     70 N/A N/A NW10        N/A
Sussex         SUNNY     70  61  73 NW6       30.07R
Andover          N/A     69  60  73 N6        30.07R
Trenton        SUNNY     70  62  76 NW8       30.07R
Millville      SUNNY     75  65  70 NW9       30.08R
Atlantic City  SUNNY     74  64  71 NW9       30.07R
Wrightstown    SUNNY     72  63  73 NW8       30.04R
Toms River     SUNNY     72  63  73 NW10      30.07R
Belmar         SUNNY     73  62  68 NW10      30.07R
$$

PAZ047>061-062-071-201400-
EASTERN PENNSYLVANIA

CITY           SKY/WX    TMP DP  RH WIND       PRES   REMARKS
Philadelphia   MOSUNNY   73  59  61 N8        30.09R
Allentown      SUNNY     69  62  78 W5        30.08R
Scranton       MOSUNNY   66  60  81 W5        30.10R
$$

CTZ002-004>006-009-010-012-RIZ004-006-007-MAZ004-011-015-201400-
SOUTHERN NEW ENGLAND
 IN CT

CITY           SKY/WX    TMP DP  RH WIND       PRES   REMARKS
Bradley INTL   MOSUNNY   74  61  63 NW10      29.99R
Hartford       SUNNY     74  61  63 NW13      29.99R
Danbury        SUNNY     71  61  70 W10G16    30.03S
Wtrbury/Oxford MOSUNNY   68  62  81 VRB5      30.03R
Norwalk Harbor   N/A     70 N/A N/A W13         N/A
Bridgeport     SUNNY     74  62  66 NW12      30.00R
Meriden        SUNNY     73  61  65 NW8       30.00R
New Haven      SUNNY     73  62  68 NW7       30.00R
Chester        FAIR      73  61  64 NW9       30.00S
Groton         SUNNY     76  62  62 N12G20    29.97R
Wilimantic     SUNNY     73  61  65 NW12G17   29.99R

 IN RI

CITY           SKY/WX    TMP DP  RH WIND       PRES   REMARKS
Providence     SUNNY     76  62  62 NW12      29.96R
Block Island   SUNNY     73  64  73 NW8       29.98R
Westerly       SUNNY     75  61  61 NW8G20    29.98R
 IN MA

CITY           SKY/WX    TMP DP  RH WIND       PRES   REMARKS
Boston         MOSUNNY   76  61  59 W14       29.93R
Worcester      SUNNY     70  58  65 W18G24    29.98R
Westfield      PTSUNNY   74  60  61 N10G16    29.99R
Provincetown   MOSUNNY   73  66  78 W8        29.93R
Nantucket      SUNNY     75  71  87 W8        29.93S
$$

ANZ330-335-338-340-345-350-353-355-201400-
COASTAL MARINE OBSERVATIONS


STATION/POSITION TIME  SKY/WX   TEMP    WIND        PRES    VSBY  WAVE
                                AIR SEA DIR/SP/G                  HT/PER
                 (UTC)          (F)     (DEG/KT/KT) (MB)    (MI)  (FT/S)
NY HARB ENTRANCE 1150            71 75  300/ 16/ 19 1015.8          3/ 7
GREAT SOUTH BAY  1215            72 78  310/ 12/ 16   N/A
23 SSW MONTAUK P 1150            72 71              1015.2          3/ 6
15 E BARNEGAT LI 1230               76                N/A           3/ 3
HUDSON CANYON    1150            74 74  310/ 17/ 21 1014.9          4/ 6
KINGS POINT      1230            71 74  360/ 13/ 16 1016.7
EXECUTION ROCKS  NOT AVBL
WESTERN LI SOUND NOT AVBL
CENTRAL LI SOUND NOT AVBL
EASTERN LI SOUND NOT AVBL
ROBBINS REEF     1230                   300/ 12/ 15 1017.7
$$


>>>>>>>>>>>>>>>>>>>>>>>>>>>> KEY <<<<<<<<<<<<<<<<<<<<<<<<<<<
>                                                          <
>     SKY/WX - Sky Condition/Present Weather               <
>     TMP    - Temperature in Fahrenheit                   <
>     DP     - Dew Point in Fahrenheit                     <
>     RH     - Relative Humidity in Percent                <
>     WIND   - Direction (from) and Speed in MPH           <
>     PRES   - Mean Sea Level Pressure (inches of Hg)      <
>     WCI    - Wind Chill Index                            <
>     VSB    - VISIBILITY IN MILES                         <
>     HX     - HEAT INDEX                                  <
>     TC     - TEMPERATURE IN CELSIUS                      <
>     VRB    - VARIABLE WIND DIRECTION                     <
>                                                          <
>>>>>>>>>>>>>>>>>>>>>>>>>>>> KEY <<<<<<<<<<<<<<<<<<<<<<<<<<<



USA.gov is the U.S. government's official web portal to all federal, state and local government web resources and services.